Satellite-Ground Cal/Val Site Overpasses Predictions

Prediction of Satellite NPP Overpassing Cal/Val Site: Antarctic Dome C

Ground Cal/Val Site Location: Latitude: -75.10, Longitude: 123.35; Satellite-Ground Site NADIR distance within 100 km.

Table of predicted overpasses for the next 14.0 days since TLE Epoch: 6/20/2015
Interval Starting Time Ending Time Minimum Distance Time Minimum Distance (km)
1 06/22/2015 15:05:47 06/22/2015 15:06:11 06/22/2015 15:05:59 55.57
2 06/23/2015 14:46:56 06/23/2015 14:47:21 06/23/2015 14:47:09 53.62
3 06/24/2015 07:48:38 06/24/2015 07:48:57 06/24/2015 07:48:48 74.97
4 06/25/2015 07:29:44 06/25/2015 07:30:12 06/25/2015 07:29:58 32.94
5 06/27/2015 15:12:08 06/27/2015 15:12:18 06/27/2015 15:12:13 93.45
6 06/28/2015 14:53:08 06/28/2015 14:53:37 06/28/2015 14:53:23 17.87
7 06/30/2015 07:35:57 06/30/2015 07:36:26 06/30/2015 07:36:11 4.19
8 07/03/2015 14:59:22 07/03/2015 14:59:51 07/03/2015 14:59:37 18.94


NCC Satellite Cal/Val Overpasses Prediction Service
